DW4188 Victoria Point QNL AU current weather conditions

sailwx.info

Wind from 132 at 0 knots gusting 2

Air temperature 23.9° C
Dewpoint 22.0° C

Last reported at 2018-Feb-23 04:08 UTC.
Time now 2018-Feb-23 04:58 UTC

Location: S 27°35' E 153°18'.
View on Google Maps.

See reports from other nearby stations

  
Tides and Currents Weather Stations Pressure Air Temp Water Temp Dewpoint Dewpoint Depression Visibility Wind Speed Wind Dir Waves Ship Positions
date/time (UTC)wind fromknots sea level pressurealtimeterstation pressurevisibilityair tempwater tempwave heightnotes
2018-Feb-23 04:08 132 0 gusting 2 23.9
2018-Feb-23 03:59 138 0 gusting 3 23.3
2018-Feb-23 03:50 109 1 gusting 3 23.3
2018-Feb-23 03:41 109 1 gusting 3 23.3
2018-Feb-23 03:32 108 1 gusting 5 23.3
2018-Feb-23 03:23 072 3 gusting 5 23.3
2018-Feb-23 03:14 060 0 gusting 7 23.3
2018-Feb-23 03:05 055 3 gusting 7 23.9
2018-Feb-23 02:56 076 1 gusting 4 23.9
2018-Feb-23 02:47 092 1 gusting 4 23.9
2018-Feb-23 02:38 085 1 gusting 3 23.9
2018-Feb-23 02:29 076 0 gusting 4 23.9
2018-Feb-23 02:20 087 1 gusting 4 23.9
2018-Feb-23 02:11 118 1 gusting 3 23.9
2018-Feb-23 02:02 144 0 gusting 3 23.3
2018-Feb-23 01:53 141 0 gusting 2 23.3
2018-Feb-23 01:44 125 1 gusting 3 23.3
2018-Feb-23 01:35 075 1 gusting 6 23.3
2018-Feb-23 01:26 091 1 gusting 6 23.9
2018-Feb-23 01:17 099 1 gusting 5 23.9
2018-Feb-23 01:08 086 1 gusting 4 23.9
2018-Feb-23 00:59 073 2 gusting 6 24.4
2018-Feb-23 00:50 092 1 gusting 5 24.4
2018-Feb-23 00:41 078 1 gusting 3 24.4
2018-Feb-23 00:32 067 1 gusting 3 24.4
2018-Feb-23 00:23 070 0 gusting 3 24.4
2018-Feb-23 00:14 075 0 gusting 3 23.9
2018-Feb-23 00:05 079 1 gusting 4 23.9
2018-Feb-22 23:56 073 0 gusting 3 23.9
2018-Feb-22 23:47 083 0 gusting 4 23.9
2018-Feb-22 23:38 108 0 gusting 2 23.9
2018-Feb-22 23:29 063 0 gusting 3 23.9
2018-Feb-22 23:20 069 0 gusting 5 23.9
2018-Feb-22 23:11 049 2 gusting 5 23.9
2018-Feb-22 23:02 067 1 gusting 6 23.9
2018-Feb-22 22:53 073 2 gusting 6 23.9
2018-Feb-22 22:44 075 4 gusting 6 23.9
2018-Feb-22 22:35 108 1 gusting 3 23.9
2018-Feb-22 22:26 079 1 gusting 9 23.9
2018-Feb-22 22:17 070 1 gusting 4 24.4
2018-Feb-22 22:08 072 1 gusting 4 24.4
2018-Feb-22 21:59 089 1 gusting 3 24.4
2018-Feb-22 21:50 077 1 gusting 3 24.4
2018-Feb-22 21:41 076 0 gusting 4 24.4
2018-Feb-22 21:32 061 0 gusting 3 24.4
2018-Feb-22 21:23 061 0 gusting 3 23.9
2018-Feb-22 21:14 085 1 gusting 3 23.9
2018-Feb-22 21:05 074 1 gusting 5 23.9
2018-Feb-22 20:56 074 1 gusting 4 23.9
2018-Feb-22 20:47 108 0 gusting 1 23.3
2018-Feb-22 20:38 083 1 gusting 4 23.3
2018-Feb-22 20:29 060 1 gusting 3 23.3
2018-Feb-22 20:20 088 1 gusting 4 23.9
2018-Feb-22 20:11 072 1 gusting 4 23.9
2018-Feb-22 20:02 099 1 gusting 2 23.3
2018-Feb-22 19:53 082 1 gusting 5 23.3
2018-Feb-22 19:44 088 2 gusting 5 23.3
2018-Feb-22 19:35 076 1 gusting 5 23.3
2018-Feb-22 19:26 068 2 gusting 4 23.9
2018-Feb-22 19:17 091 1 gusting 4 23.3
2018-Feb-22 19:08 089 1 gusting 5 23.3
2018-Feb-22 18:59 078 2 gusting 3 23.3
2018-Feb-22 18:50 070 0 gusting 4 23.9
2018-Feb-22 18:41 079 2 gusting 4 23.3
2018-Feb-22 18:32 075 1 gusting 3 23.3
2018-Feb-22 18:23 078 1 gusting 4 23.3
2018-Feb-22 18:14 068 2 gusting 5 23.3
2018-Feb-22 18:05 084 1 gusting 5 23.3
2018-Feb-22 17:56 089 23.3
2018-Feb-22 17:47 086 1 gusting 3 23.3
2018-Feb-22 17:38 094 2 gusting 3 23.3
2018-Feb-22 17:29 054 0 gusting 5 23.3
2018-Feb-22 17:20 077 2 gusting 5 23.3
2018-Feb-22 17:11 122 0 gusting 3 23.3
2018-Feb-22 17:02 133 1 gusting 4 23.3
2018-Feb-22 16:53 110 1 gusting 3 23.3
2018-Feb-22 16:44 083 1 gusting 4 23.3
2018-Feb-22 16:35 089 1 gusting 3 23.3
2018-Feb-22 16:26 101 1 gusting 5 23.3
2018-Feb-22 16:17 081 1 gusting 4 23.3
2018-Feb-22 16:08 087 1 gusting 6 23.3
2018-Feb-22 15:59 107 1 gusting 5 23.3
2018-Feb-22 15:50 112 1 gusting 3 23.3
2018-Feb-22 15:41 125 1 gusting 4 23.3
2018-Feb-22 15:32 114 2 gusting 4 23.3
2018-Feb-22 15:23 090 2 gusting 3 23.3
2018-Feb-22 15:14 105 0 gusting 3 23.3
2018-Feb-22 15:05 130 23.3
2018-Feb-22 14:56 134 0 gusting 3 23.3
2018-Feb-22 14:47 129 1 gusting 5 23.3
2018-Feb-22 14:38 127 1 gusting 3 23.3
2018-Feb-22 14:29 137 1 gusting 3 23.3
2018-Feb-22 14:20 123 1 gusting 5 23.3
2018-Feb-22 14:11 130 1 gusting 3 22.8
2018-Feb-22 14:02 109 1 gusting 3 22.8
2018-Feb-22 13:53 141 1 gusting 3 22.8
2018-Feb-22 13:44 145 0 gusting 4 22.8
2018-Feb-22 13:35 123 0 gusting 4 23.3
2018-Feb-22 13:26 102 2 gusting 5 23.3
2018-Feb-22 13:17 116 1 gusting 5 23.3
2018-Feb-22 13:08 152 1 gusting 3 23.3
2018-Feb-22 12:59 148 2 gusting 3 23.3
2018-Feb-22 12:50 146 0 gusting 5 22.8
2018-Feb-22 12:41 127 2 gusting 4 22.8
2018-Feb-22 12:32 130 2 gusting 5 22.8
2018-Feb-22 12:23 154 1 gusting 4 22.8
2018-Feb-22 12:14 150 1 gusting 6 22.8
2018-Feb-22 12:05 151 1 gusting 5 22.8
2018-Feb-22 11:56 144 1 gusting 3 22.8
2018-Feb-22 11:47 151 1 gusting 5 22.8
2018-Feb-22 11:38 156 2 gusting 5 22.8
2018-Feb-22 11:29 148 1 gusting 7 22.8
2018-Feb-22 11:20 148 2 gusting 6 22.8
2018-Feb-22 11:11 145 4 gusting 6 22.8
2018-Feb-22 11:02 160 2 gusting 6 22.2
2018-Feb-22 10:53 160 1 gusting 4 22.2
2018-Feb-22 10:44 151 2 gusting 5 22.2
2018-Feb-22 10:35 135 2 gusting 5 22.2
2018-Feb-22 10:26 134 2 gusting 6 22.8
2018-Feb-22 10:17 152 2 gusting 8 22.8
2018-Feb-22 10:08 152 6 gusting 9 22.8
2018-Feb-22 09:59 149 4 gusting 7 22.8
2018-Feb-22 09:50 154 4 gusting 9 22.8
2018-Feb-22 09:41 156 4 gusting 7 22.2
2018-Feb-22 09:32 158 3 gusting 8 22.2
2018-Feb-22 09:23 152 3 gusting 7 22.8
2018-Feb-22 09:14 144 2 gusting 3 22.8
2018-Feb-22 09:05 146 1 gusting 4 22.8
2018-Feb-22 08:56 120 2 gusting 5 22.8
2018-Feb-22 08:47 104 1 gusting 5 22.8
2018-Feb-22 08:38 137 1 gusting 3 22.8
2018-Feb-22 08:29 138 2 gusting 4 22.8
2018-Feb-22 08:20 128 2 gusting 4 22.8
2018-Feb-22 08:11 123 2 gusting 3 22.8
2018-Feb-22 08:02 139 0 gusting 6 22.8
2018-Feb-22 07:53 115 1 gusting 5 22.8
2018-Feb-22 07:44 089 2 gusting 5 22.8
2018-Feb-22 07:35 114 2 gusting 5 23.3
2018-Feb-22 07:26 120 2 gusting 3 23.3
2018-Feb-22 07:17 098 1 gusting 3 23.3
2018-Feb-22 07:08 137 2 gusting 3 23.3
2018-Feb-22 06:59 131 0 gusting 3 23.3
2018-Feb-22 06:50 153 23.3
2018-Feb-22 06:41 139 2 gusting 3 23.3
2018-Feb-22 06:32 138 1 gusting 3 23.3
2018-Feb-22 06:23 140 1 gusting 3 23.9
2018-Feb-22 06:14 144 1 gusting 6 23.9
2018-Feb-22 06:05 143 3 gusting 6 24.4
2018-Feb-22 05:56 111 1 gusting 5 24.4
2018-Feb-22 05:47 106 2 gusting 5 25.0
2018-Feb-22 05:38 121 1 gusting 5 25.6
2018-Feb-22 05:29 137 2 gusting 4 25.6
2018-Feb-22 05:20 114 1 gusting 5 25.6
2018-Feb-22 05:11 138 1 gusting 5 26.1
2018-Feb-22 05:02 145 3 gusting 6 25.6
2018-Feb-22 04:53 128 1 gusting 6 25.6
2018-Feb-22 04:44 123 2 gusting 6 25.6
2018-Feb-22 04:35 110 3 gusting 5 25.6
2018-Feb-22 04:26 126 1 gusting 4 25.6
2018-Feb-22 04:17 106 2 gusting 6 25.6
2018-Feb-22 04:08 128 1 gusting 5 25.6
2018-Feb-22 03:59 137 1 gusting 3 25.0
2018-Feb-22 03:50 115 2 gusting 6 25.0
2018-Feb-22 03:41 101 1 gusting 8 25.0
2018-Feb-22 03:32 126 1 gusting 3 25.0
2018-Feb-22 03:23 128 2 gusting 6 25.0
2018-Feb-22 03:14 108 1 gusting 4 25.0
2018-Feb-22 03:05 129 1 gusting 5 25.6
2018-Feb-22 02:56 121 3 gusting 5 25.0
2018-Feb-22 02:47 094 2 gusting 5 24.4
2018-Feb-22 02:38 091 2 gusting 6 24.4
2018-Feb-22 02:29 121 2 gusting 4 24.4
2018-Feb-22 02:20 124 2 gusting 6 25.0
2018-Feb-22 02:11 135 3 gusting 5 25.0
2018-Feb-22 02:02 132 1 gusting 7 25.6
2018-Feb-22 01:53 121 2 gusting 6 25.6
2018-Feb-22 01:44 122 3 gusting 6 25.6
2018-Feb-22 01:35 095 2 gusting 5 25.6
2018-Feb-22 01:26 129 3 gusting 7 25.6
2018-Feb-22 01:17 113 3 gusting 7 25.6
2018-Feb-22 01:08 116 2 gusting 9 25.6
2018-Feb-22 00:59 107 3 gusting 6 25.6
2018-Feb-22 00:50 101 2 gusting 7 25.6
2018-Feb-22 00:41 102 3 gusting 6 26.1
2018-Feb-22 00:32 085 3 gusting 6 26.1
2018-Feb-22 00:23 094 2 gusting 6 25.6
2018-Feb-22 00:14 100 2 gusting 6 26.1
2018-Feb-22 00:05 097 2 gusting 7 26.7
2018-Feb-21 23:56 107 3 gusting 5 26.1
2018-Feb-21 23:47 137 1 gusting 6 26.1
2018-Feb-21 23:38 109 3 gusting 5 25.6
2018-Feb-21 23:29 132 2 gusting 6 25.6
2018-Feb-21 23:20 115 1 gusting 6 25.6
2018-Feb-21 23:11 108 3 gusting 6 25.6
2018-Feb-21 23:02 138 2 gusting 4 25.6
2018-Feb-21 22:53 118 1 gusting 6 25.0
2018-Feb-21 22:44 129 3 gusting 6 25.0
2018-Feb-21 22:35 118 1 gusting 4 25.0
2018-Feb-21 22:26 115 2 gusting 4 24.4
2018-Feb-21 22:17 112 3 gusting 5 23.9
2018-Feb-21 22:08 123 3 gusting 5 23.9
2018-Feb-21 21:59 136 2 gusting 8 23.3
2018-Feb-21 21:50 127 2 gusting 4 23.3
2018-Feb-21 21:41 116 2 gusting 4 22.8
2018-Feb-21 21:32 152 2 gusting 6 22.2
2018-Feb-21 21:23 197 22.2
2018-Feb-21 21:14 191 2 gusting 3 21.7
2018-Feb-21 21:05 176 1 gusting 5 21.7
2018-Feb-21 20:56 169 2 gusting 6 21.7
2018-Feb-21 20:47 173 3 gusting 5 21.1
2018-Feb-21 20:38 174 2 gusting 7 21.7
2018-Feb-21 20:29 178 5 gusting 7 21.1
2018-Feb-21 20:20 175 3 gusting 7 21.7
2018-Feb-21 20:11 174 2 gusting 6 21.7
2018-Feb-21 20:02 184 2 gusting 6 21.7
2018-Feb-21 19:53 173 2 gusting 6 21.7
2018-Feb-21 19:44 160 4 gusting 9 21.7
2018-Feb-21 19:17 152 4 gusting 9 21.7
2018-Feb-21 19:08 159 3 gusting 6 21.7
2018-Feb-21 18:59 158 3 gusting 6 21.7
2018-Feb-21 18:50 162 3 gusting 7 21.7
2018-Feb-21 18:32 159 3 gusting 6 21.7
2018-Feb-21 18:23 152 3 gusting 6 21.7
2018-Feb-21 18:14 159 3 gusting 9 21.7
2018-Feb-21 18:05 150 5 gusting 9 21.7
2018-Feb-21 17:56 155 5 gusting 15 22.2
2018-Feb-21 17:47 149 4 gusting 12 22.2
2018-Feb-21 17:38 155 5 gusting 8 22.2
2018-Feb-21 17:29 165 5 gusting 9 22.2
2018-Feb-21 17:20 155 4 gusting 7 22.8
2018-Feb-21 17:11 153 4 gusting 6 22.8
2018-Feb-21 17:02 156 3 gusting 9 22.8
2018-Feb-21 16:53 146 5 gusting 11 22.8
2018-Feb-21 16:44 148 22.2
2018-Feb-21 16:35 152 4 gusting 7 22.2
2018-Feb-21 16:26 157 3 gusting 11 22.2
2018-Feb-21 16:17 154 5 gusting 12 22.2
2018-Feb-21 16:08 148 3 gusting 6 22.2
2018-Feb-21 15:59 148 2 gusting 6 22.2
2018-Feb-21 15:50 147 2 gusting 6 22.2
2018-Feb-21 15:41 134 2 gusting 5 22.2
2018-Feb-21 15:32 146 4 gusting 7 21.7
2018-Feb-21 15:23 153 3 gusting 9 21.7
2018-Feb-21 15:14 151 3 gusting 10 21.7
2018-Feb-21 14:38 151 4 gusting 14 21.7
2018-Feb-21 14:29 130 6 gusting 9 21.7
2018-Feb-21 14:20 130 3 gusting 10 22.2
2018-Feb-21 14:02 124 3 gusting 7 22.2
2018-Feb-21 13:53 152 1 gusting 6 22.2
2018-Feb-21 13:44 153 4 gusting 6 22.2
2018-Feb-21 13:35 146 2 gusting 6 21.7
2018-Feb-21 13:26 158 2 gusting 8 21.7
2018-Feb-21 13:17 149 5 gusting 13 21.7
2018-Feb-21 13:08 150 6 gusting 13 21.7
2018-Feb-21 12:59 152 7 gusting 16 22.2
2018-Feb-21 12:50 157 8 gusting 12 22.8
2018-Feb-21 12:32 152 6 gusting 15 22.8
2018-Feb-21 12:23 148 8 gusting 17 22.8
2018-Feb-21 12:14 138 6 gusting 18 23.3
2018-Feb-21 12:05 145 6 gusting 16 23.3
2018-Feb-21 11:47 152 8 gusting 13 23.3
2018-Feb-21 11:38 148 7 gusting 18 23.3
2018-Feb-21 11:20 148 6 gusting 14 23.3
2018-Feb-21 11:02 146 4 gusting 13 22.8
2018-Feb-21 10:53 151 6 gusting 16 22.8
2018-Feb-21 10:44 150 2 gusting 5 22.8
2018-Feb-21 10:35 146 3 gusting 10 23.3
2018-Feb-21 10:26 140 5 gusting 12 23.3
2018-Feb-21 10:17 140 5 gusting 12 23.9
2018-Feb-21 10:08 141 3 gusting 13 23.9
2018-Feb-21 09:59 153 6 gusting 9 23.9
2018-Feb-21 09:50 140 3 gusting 13 23.9
2018-Feb-21 09:41 151 7 gusting 13 23.3
2018-Feb-21 09:32 144 6 gusting 13 23.3
2018-Feb-21 09:23 156 6 gusting 11 23.3
2018-Feb-21 09:14 166 6 gusting 14 23.3
2018-Feb-21 09:05 157 6 gusting 11 23.3
2018-Feb-21 08:56 160 6 gusting 8 23.3
2018-Feb-21 08:47 160 6 gusting 15 23.3
2018-Feb-21 08:38 152 6 gusting 18 23.9
2018-Feb-21 08:29 138 5 gusting 9 24.4
2018-Feb-21 08:20 139 3 gusting 7 24.4
2018-Feb-21 08:11 140 4 gusting 9 24.4
2018-Feb-21 08:02 144 2 gusting 9 24.4
2018-Feb-21 07:53 130 6 gusting 8 24.4
2018-Feb-21 07:44 145 3 gusting 6 24.4
2018-Feb-21 07:35 118 2 gusting 10 24.4
2018-Feb-21 07:26 133 5 gusting 9 25.0
2018-Feb-21 07:17 145 3 gusting 6 25.0
2018-Feb-21 07:08 132 3 gusting 6 25.0
2018-Feb-21 06:59 138 2 gusting 7 25.0
2018-Feb-21 06:50 137 2 gusting 6 25.0
2018-Feb-21 06:41 149 3 gusting 8 25.0
2018-Feb-21 06:32 128 3 gusting 7 25.0
2018-Feb-21 06:23 135 3 gusting 10 25.0
2018-Feb-21 06:14 148 5 gusting 12 25.0
2018-Feb-21 06:05 136 3 gusting 13 25.6
2018-Feb-21 05:56 123 3 gusting 10 25.6
2018-Feb-21 05:47 144 6 gusting 11 25.6
2018-Feb-21 05:38 149 4 gusting 11 26.1
2018-Feb-21 05:29 155 3 gusting 12 25.6
2018-Feb-21 05:20 134 2 gusting 16 25.6
2018-Feb-21 05:11 140 6 gusting 10 25.0
2018-Feb-21 05:02 133 2 gusting 9 25.0
2018-Feb-21 04:53 133 3 gusting 11 25.0
2018-Feb-21 04:44 130 4 gusting 8 25.0
2018-Feb-21 04:35 131 3 gusting 7 25.0
2018-Feb-21 04:26 132 4 gusting 13 25.0
2018-Feb-21 04:17 151 3 gusting 8 25.0
2018-Feb-21 04:08 148 4 gusting 11 25.0